Location: Austin
(30.3000°N, 97.7500°W)
Time: 03:44:25
(UTC-05:00)

Cosmos 1908 - Pass Details

Date: 01 October 2024
Orbit: 454 x 464 km, 82.5° (Epoch: 06 October)

Event Time Altitude Azimuth Distance (km) Brightness Sun altitude
Rises 19:59:38 0° 162° (SSE) 2,450 6.4 -10.3°
Reaches altitude 10° 20:01:54 10° 149° (SSE) 1,582 5.3 -10.8°
Maximum altitude 20:04:48 25° 91° (E) 942 3.9 -11.5°
Drops below altitude 10° 20:07:43 10° 34° (NE) 1,593 5.4 -12.1°
Sets 20:10:01 0° 21° (NNE) 2,471 6.5 -12.6°
